Regional Weather Roundup
Issued by NWS

Home | Current Version | Previous Version | Graphics & Text | Print | Product List | Glossary Off
Versions: 1 2 3 4 5 6 7 8 9 10 11 12 13 14 15 16 17 18 19 20 21 22 23 24 25 26 27 28 29 30 31 32 33 34 35 36 37 38 39 40 41 42 43 44 45 46 47 48 49 50

000
ASUS43 KIND 150409
RWRIN

WEATHER ROUNDUP FOR INDIANA
NATIONAL WEATHER SERVICE INDIANAPOLIS IN
1200 AM EDT MON SEP 15 2014

NOTE: "FAIR" INDICATES FEW OR NO CLOUDS BELOW 12,000 FEET WITH NO
SIGNIFICANT WEATHER AND/OR OBSTRUCTIONS TO VISIBILITY.

* - STATION DOES NOT REPORT WEATHER SUCH AS PRECIPITATION OR FOG.

+ - STATION NOT QUALITY CONTROLLED BY THE NATIONAL WEATHER SERVICE.
    USE DATA WITH CAUTION...ESPECIALLY DEWPOINT AND RELATIVE
    HUMIDITY OBSERVATIONS.

INZ001>003-010>013-019-020-150500-
NORTHWEST INDIANA

CITY           SKY/WX    TMP DP  RH WIND       PRES   REMARKS
GARY /AIRPORT/ CLEAR     49  47  94 CALM      30.19S
KNOX *+        CLEAR     47  45  93 CALM      30.19S
LA PORTE +     CLEAR     46  46 100 CALM      30.20S
MICHIGAN CITY+ CLEAR     46  46 100 CALM      30.20R FOG
MONTICELLO +   CLEAR     48  47  98 CALM      30.19S
VALPARAISO     CLEAR     48  47  96 CALM      30.20S

$$

LMZ046-743>745-150500-
SOUTHERN LAKE MICHIGAN

STATION/POSITION TIME  TEMP WIND        PRES
                       AIR  DIR/SP/G
                 (UTC) (F)  (DEG/KT/KT) (MB)
MICHIGAN CITY    0400   56  130/  6/  7   N/A

$$

INZ004-005-014>016-021>024-150500-
NORTH CENTRAL INDIANA

CITY           SKY/WX    TMP DP  RH WIND       PRES   REMARKS
GOSHEN         CLEAR     49  46  90 CALM      30.21R
LOGANSPORT +   CLEAR     46  43  87 CALM      30.21S
PERU/GRISSOM   CLEAR     50  50 100 S3        30.20S
ROCHESTER +    CLEAR     50  46  87 CALM      30.20S
SOUTH BEND     CLEAR     51  46  83 CALM      30.21R
WARSAW +       CLEAR     46  45  93 CALM      30.21S

$$

INZ006>009-017-018-025>027-150500-
NORTHEAST INDIANA

CITY           SKY/WX    TMP DP  RH WIND       PRES   REMARKS
ANGOLA *+      CLEAR     46  46 100 CALM      30.20F
AUBURN +       CLEAR     48  45  87 CALM      30.21F
FORT WAYNE     CLEAR     50  47  89 CALM      30.22S
HUNTINGTON +   CLEAR     48  48  99 CALM      30.21R

$$

INZ028-029-035-036-043>045-051>053-150500-
WEST CENTRAL INDIANA

CITY           SKY/WX    TMP DP  RH WIND       PRES   REMARKS
GREENCASTLE +  CLEAR     48  46  93 CALM      30.22R
LAFAYETTE      CLEAR     49  48  97 CALM      30.21R
TERRE HAUTE    CLEAR     47  46  97 CALM      30.21S

$$

INZ030>032-037>040-046>048-054>057-064-065-150500-
CENTRAL INDIANA

CITY           SKY/WX    TMP DP  RH WIND       PRES   REMARKS
CP ATTERBURY + CLEAR     48  46  93 CALM      30.21F
FRANKFORT +    CLEAR    N/A N/A N/A CALM      30.23R
GREENWOOD *+   CLEAR     52  48  87 CALM      30.22
INDIANAPOLIS   PTCLDY    55  48  77 W5        30.20S
-EAGLE CREEK   CLEAR     54  49  83 CALM      30.21R
KOKOMO *+      CLEAR     48  45  87 CALM      30.22R
MARION +       CLEAR     47  45  91 CALM      30.22R
MT COMFORT *+  CLEAR     48  48 100 CALM      30.21S
SHELBYVILLE    CLEAR     51  48  89 CALM      30.21S
ZIONSVILLE +   CLEAR     47  44  90 CALM      30.22R

$$

INZ033-034-041-042-049-050-058-059-150500-
EAST CENTRAL INDIANA

CITY           SKY/WX    TMP DP  RH WIND       PRES   REMARKS
MUNCIE         CLEAR     49  46  90 CALM      30.21S

$$

INZ060-061-067>069-081>083-085>088-150500-
SOUTHWEST INDIANA

CITY           SKY/WX    TMP DP  RH WIND       PRES   REMARKS
EVANSVILLE     CLEAR     55  51  86 CALM      30.21S
WASHINGTON +   CLEAR     49  49  97 CALM      30.21R

$$

INZ062-063-066-070>080-084-089>092-150500-
SOUTH CENTRAL AND SOUTHEAST INDIANA

CITY           SKY/WX    TMP DP  RH WIND       PRES   REMARKS
BLOOMINGTON    CLEAR     48  46  93 CALM      30.22S
NORTH VERNON + CLEAR     50  50 100 CALM      30.21
SEYMOUR +      CLEAR     50  48  93 CALM      30.21

$$



USA.gov is the U.S. government's official web portal to all federal, state and local government web resources and services.